星链-34784 (STARLINK-34784)

导读

STARLINK-34784是由美国发射的星链卫星,于2025年9月3日发射升空,隶属于SpaceX公司的星链项目,该项目旨在构建全球卫星互联网星座,为全球不同地区用户提供高速低延迟的宽带网络服务,进一步扩充星链星座的卫星规模,提升覆盖范围与服务能力。

基本信息
目录编号:
65458
目录名称:
STARLINK-34784
国际标识:
2025-195A
轨道中心:
EARTH
卫星名称:
星链-34784
卫星全名:
星链-34784 (STARLINK-34784)
卫星状态:
在轨 (已飞行375 天)
发射日期:
2025-09-03 UTC
国别 :
美国 (US)
星等 :
--
该卫星已列入 空间交会检测服务 Space Conjunction Data Service (SCDS) ,当前飞行风险评估等级: 无高风险
轨道信息
数据来源 国际轨道数据
星历时间: 2026-09-12T06:46:51+0800
1天前
查看轨道信息
半长轴: 6848.84km
偏心率: 0.0001046
轨道倾角: 53.157°
近地点辐角 82.759°
升交点赤经 111.413°
平近点角 277.353°
近地点: 469.986km
远地点: 471.42km
周期: 94.012分钟
每日圈数: 15.317126
详细信息
固有亮度:
5
最大亮度:
2.5
卫星平台:
Starlink V1.0
覆盖范围:
全球
运营商:
太空探索技术公司
运营商所在国:
美国
制造商(研发单位):
太空探索技术公司
制造商所在国:
美国
使用方式:
暂无
卫星简介
Starlink 计划是 SpaceX 推出的全球卫星互联网项目,通过发射低轨道卫星,为全球尤其是偏远地区提供高速、低延迟的互联网服务。自 2019 年起,Starlink 已部署数千颗卫星,旨在缩小全球数字鸿沟,推动互联网普及。该项目还为军事、航空等行业提供通信支持,带来广泛经济效益。
2D轨道图
3D轨道图
轨道高度分析图
轨道倾角分析图
轨道综合分析图
查看轨道综合分析图
交会数据列表
事件ID 空间交会对象 最接近时刻(TCA) 交会距离 交会风险概率(CRP) 交会风险指数(CRI) 操作
CDM_260906-130506-545806-801621
2026-09-06T
13:05:08+0000
2.149 km
极远距离
1.758987E-6 低风险 0.4
CDM_260910-112906-545806-580521
2026-09-10T
11:29:59+0000
2.982 km
极远距离
7.985497E-7 极低风险 0.33
与全量物体交会距离演化趋势
与全量物体交会风险概率演化趋势